Location: Wildlife_Club
(35.6000°N, 81.4330°W)
Time: 14:54:04
(UTC-04:00)

A-11 Canister half - Pass Details

Date: 20 June 2019
Orbit: 1526 x 1683 km, 47.3° (Epoch: 20 July)

Event Time Altitude Azimuth Distance (km) Brightness Sun altitude
Exits shadow 05:22:55 - 219° (SW) 3,878 10.5 -8.8°
Reaches altitude 10° 05:23:15 10° 219° (SW) 3,771 10.4 -8.8°
Maximum altitude 05:32:39 67° 139° (SE) 1,654 9.2 -7.3°
Drops below altitude 10° 05:41:51 10° 59° (ENE) 3,699 12.9 -5.7°
Sets 05:44:53 0° 57° (ENE) 4,679 14.6 -5.2°
